Location: Franzen
(48.6167°N, 15.3833°E)
Time: 02:08:21
(UTC+00:00)

Cosmos 2227 - Visible Passes

Search period start: 26 July 2021 00:00
Search period end: 05 August 2021 00:00
Orbit: 835 x 860 km, 71.0° (Epoch: 25 July)

Date Brightness Start Highest point End Pass type
(mag) Time Alt. Az. Time Alt. Az. Time Alt. Az.
26 Jul 6.1 00:45:27 10° SE 00:49:26 20° E 00:53:27 10° NE visible
26 Jul 4.3 02:27:25 10° SW 02:33:01 72° WNW 02:38:41 10° NNE visible
27 Jul 6.1 00:32:45 12° SE 00:36:16 20° E 00:40:13 10° NE visible
27 Jul 4.3 02:14:43 13° SW 02:19:50 73° WNW 02:25:29 10° NNE visible
28 Jul 6.1 00:20:05 13° SE 00:23:06 20° E 00:27:00 10° NE visible
28 Jul 4.2 02:02:02 16° SW 02:06:38 74° WNW 02:12:18 10° NNE visible
29 Jul 6.1 00:07:23 14° SE 00:09:55 19° E 00:13:46 10° ENE visible
29 Jul 4.2 01:49:20 19° SW 01:53:27 76° WNW 01:59:06 10° NNE visible
29 Jul 6.0 23:54:39 16° SE 23:56:44 19° E 00:00:33 10° ENE visible
30 Jul 4.2 01:36:36 23° SW 01:40:15 77° WNW 01:45:55 10° NNE visible
30 Jul 6.0 23:41:53 16° ESE 23:43:34 19° E 23:47:20 10° ENE visible
31 Jul 4.2 01:23:49 26° SW 01:27:04 78° WNW 01:32:44 10° NNE visible
31 Jul 5.9 23:29:05 17° ESE 23:30:23 18° E 23:34:05 10° ENE visible
01 Aug 4.2 01:11:01 30° SW 01:13:52 79° WNW 01:19:32 10° NNE visible
01 Aug 6.0 02:55:03 10° W 02:59:00 19° NW 03:02:59 10° N visible
01 Aug 5.9 23:16:15 17° ESE 23:17:12 18° E 23:20:51 10° ENE visible
02 Aug 4.2 00:58:11 35° SW 01:00:41 80° WNW 01:06:21 10° NNE visible
02 Aug 6.0 02:41:49 10° W 02:45:48 19° NW 02:49:48 10° N visible
02 Aug 5.9 23:03:23 17° ESE 23:04:01 18° E 23:07:38 10° ENE visible
03 Aug 4.1 00:45:19 39° SW 00:47:29 81° WNW 00:53:09 10° NNE visible
03 Aug 6.0 02:28:35 10° W 02:32:35 20° NW 02:36:37 10° N visible
03 Aug 6.0 22:50:30 17° ESE 22:50:50 17° E 22:54:23 10° ENE visible
04 Aug 4.1 00:32:26 44° SW 00:34:17 82° WNW 00:39:57 10° NNE visible
04 Aug 6.0 02:15:20 10° W 02:19:22 20° NW 02:23:27 10° N visible
04 Aug 6.0 22:37:35 17° E 22:37:40 17° E 22:41:09 10° ENE visible
